Rome, GA

8:02 AM EDT on October 24, 2017 (GMT -0400)
Russell

Weather History for KRMG - December, 2013

Change the Weather History Date:

Friday, December 20, 2013

  Actual Average Record
Temperature  
Mean Temperature 50 °F 42 °F  
Max Temperature 68 °F 52 °F 68 °F (2013)
Min Temperature 32 °F 32 °F 12 °F (2000)
Degree Days  
Heating Degree Days 15 23  
Month to date heating degree days 388 431  
Since 1 July heating degree days 1023 1038  
Moisture  
Dew Point 41 °F    
Average Humidity 67    
Maximum Humidity 89    
Minimum Humidity 44    
Precipitation  
Precipitation 0.00 in 0.12 in 0.93 in (2002)
Month to date precipitation 4.70 3.29  
Year to date precipitation 50.83  
Snow  
Snow 0.00 in - - ()
Month to date snowfall 0.0  
Since 1 July snowfall 0.0  
Snow Depth 0.00 in    
Sea Level Pressure  
Sea Level Pressure 30.14 in    
Wind  
Wind Speed 3 mph (South)    
Max Wind Speed 14 mph    
Max Gust Speed 16 mph    
Visibility 10 miles    
Events      
T = Trace of Precipitation, MM = Missing Value Source: NWS Daily Summary

Daily Weather History Graph

Daily Weather History Graph

Search for Another Location

Airport or City:

Trip Planner

Search our weather history database for the weather conditions in past years. The results will help you decide how hot, cold, wet, or windy it might be!

Date:

Astronomy

Dec. 20, 2013 Rise Set
Actual Time 7:42 AM EST 5:34 PM EST
Civil Twilight 7:14 AM EST 6:02 PM EST
Nautical Twilight 6:43 AM EST 6:33 PM EST
Astronomical Twilight 6:12 AM EST 7:04 PM EST
Moon 8:46 PM EST (12/20) 9:42 AM EST (12/20)
Length of Visible Light 10h 47m
Length of Day
9h 51m
Waning Gibbous, 90% of the Moon is Illuminated
Dec 20
Waning Gibbous
Dec 25
Last Quarter
Jan 1
New
Jan 7
First Quarter
Jan 15
Full

Hourly Weather History & Observations

Time (EST) Temp. Windchill Dew Point Humidity Pressure Visibility Wind Dir Wind Speed Gust Speed Precip Events Conditions
12:53 AM 36.0 °F - 30.0 °F 79% 30.17 in 10.0 mi Calm Calm - N/A   Clear
1:53 AM 34.0 °F - 30.9 °F 89% 30.18 in 10.0 mi Calm Calm - N/A   Clear
2:53 AM 33.1 °F - 30.9 °F 92% 30.19 in 10.0 mi Calm Calm - N/A   Clear
3:53 AM 34.0 °F - 30.0 °F 85% 30.19 in 10.0 mi Calm Calm - N/A   Clear
4:53 AM 34.0 °F - 30.0 °F 85% 30.18 in 10.0 mi Calm Calm - N/A   Clear
5:53 AM 37.0 °F 34.5 °F 33.1 °F 86% 30.18 in 10.0 mi WNW 3.5 mph - N/A   Overcast
6:53 AM 41.0 °F 39.0 °F 34.0 °F 76% 30.19 in 10.0 mi WNW 3.5 mph - N/A   Overcast
7:53 AM 41.0 °F - 35.1 °F 79% 30.18 in 10.0 mi Calm Calm - N/A   Overcast
8:53 AM 44.1 °F - 36.0 °F 73% 30.19 in 10.0 mi Calm Calm - N/A   Overcast
9:53 AM 46.9 °F - 36.0 °F 66% 30.21 in 10.0 mi Calm Calm - N/A   Overcast
10:53 AM 53.1 °F - 37.0 °F 55% 30.20 in 10.0 mi Calm Calm - N/A   Overcast
11:53 AM 59.0 °F - 37.9 °F 46% 30.16 in 10.0 mi Variable 4.6 mph - N/A   Scattered Clouds
12:53 PM 62.1 °F - 41.0 °F 46% 30.12 in 10.0 mi SSE 5.8 mph - N/A   Mostly Cloudy
1:53 PM 64.9 °F - 44.1 °F 47% 30.10 in 10.0 mi SE 3.5 mph - N/A   Mostly Cloudy
2:53 PM 66.9 °F - 51.1 °F 57% 30.07 in 10.0 mi South 8.1 mph - N/A   Scattered Clouds
3:53 PM 66.9 °F - 53.1 °F 61% 30.07 in 10.0 mi South 5.8 mph - N/A   Overcast
4:53 PM 64.9 °F - 53.1 °F 65% 30.09 in 10.0 mi South 5.8 mph - N/A   Overcast
5:53 PM 63.0 °F - 52.0 °F 67% 30.09 in 10.0 mi SSE 6.9 mph - N/A   Overcast
6:53 PM 61.0 °F - 51.1 °F 70% 30.11 in 10.0 mi SE 6.9 mph - N/A   Overcast
7:53 PM 60.1 °F - 51.1 °F 72% 30.10 in 10.0 mi SSE 6.9 mph - N/A   Overcast
8:53 PM 59.0 °F - 51.1 °F 75% 30.11 in 10.0 mi Calm Calm - N/A   Overcast
9:53 PM 57.9 °F - 51.1 °F 78% 30.10 in 10.0 mi South 3.5 mph - N/A   Overcast
10:53 PM 55.9 °F - 51.1 °F 84% 30.09 in 10.0 mi South 4.6 mph - N/A   Overcast
11:53 PM 57.0 °F - 51.1 °F 81% 30.07 in 10.0 mi SSE 3.5 mph - N/A   Overcast